Time,TemperatureF,DewpointF,PressureIn,WindDirection,WindDirectionDegrees,WindSpeedMPH,WindSpeedGustMPH,Humidity,HourlyPrecipIn,Conditions,Clouds,dailyrainin,SolarRadiationWatts/m^2,SoftwareType,DateUTC
2013-03-25 00:22:00,39.0,15.0,-100.00,ESE,121,2.0,3.0,38,-99.99,,,-99.99,0.000000,,2013-03-25 07:22:00,
2013-03-25 00:30:00,38.0,14.0,-100.00,SSE,149,2.0,4.0,37,-99.99,,,-99.99,0.000000,,2013-03-25 07:30:00,
2013-03-25 01:22:00,38.0,14.0,-100.00,SSE,149,2.0,4.0,37,-99.99,,,-99.99,0.000000,,2013-03-25 08:22:00,
2013-03-25 01:30:00,39.0,4.0,-100.00,SSE,164,2.0,4.0,23,-99.99,,,-99.99,0.000000,,2013-03-25 08:30:00,
2013-03-25 02:22:00,39.0,4.0,-100.00,SSE,164,2.0,4.0,23,-99.99,,,-99.99,0.000000,,2013-03-25 09:22:00,
2013-03-25 02:30:00,39.0,2.0,-100.00,South,183,3.0,5.0,21,-99.99,,,-99.99,0.000000,,2013-03-25 09:30:00,
2013-03-25 03:22:00,39.0,2.0,-100.00,South,183,3.0,5.0,21,-99.99,,,-99.99,0.000000,,2013-03-25 10:22:00,
2013-03-25 03:30:00,38.0,2.0,-100.00,South,172,3.0,4.0,21,-99.99,,,-99.99,0.000000,,2013-03-25 10:30:00,
2013-03-25 04:23:00,38.0,2.0,-100.00,South,172,3.0,4.0,21,-99.99,,,-99.99,0.000000,,2013-03-25 11:23:00,
2013-03-25 04:30:00,38.0,0.0,-100.00,SSE,161,3.0,5.0,19,-99.99,,,-99.99,0.000000,,2013-03-25 11:30:00,
2013-03-25 05:23:00,38.0,0.0,-100.00,SSE,161,3.0,5.0,19,-99.99,,,-99.99,0.000000,,2013-03-25 12:23:00,
2013-03-25 05:30:00,38.0,0.0,-100.00,SE,143,1.0,3.0,20,-99.99,,,-99.99,0.000000,,2013-03-25 12:30:00,
2013-03-25 06:22:00,38.0,0.0,-100.00,SE,143,1.0,3.0,20,-99.99,,,-99.99,0.000000,,2013-03-25 13:22:00,
2013-03-25 06:30:00,38.0,-2.0,-100.00,ESE,123,2.0,2.0,18,-99.99,,,-99.99,0.000000,,2013-03-25 13:30:00,
2013-03-25 07:22:00,38.0,-2.0,-100.00,ESE,123,2.0,2.0,18,-99.99,,,-99.99,0.000000,,2013-03-25 14:22:00,
2013-03-25 07:30:00,39.0,-3.0,-100.00,SSE,158,3.0,5.0,16,-99.99,,,-99.99,30.000000,,2013-03-25 14:30:00,
2013-03-25 08:22:00,39.0,-3.0,-100.00,SSE,158,3.0,5.0,16,-99.99,,,-99.99,30.000000,,2013-03-25 15:22:00,
2013-03-25 08:30:00,41.0,-2.0,-100.00,SE,130,4.0,5.0,16,-99.99,,,-99.99,162.000000,,2013-03-25 15:30:00,
2013-03-25 10:30:00,44.0,-2.0,-100.00,SSW,200,3.0,7.0,14,-99.99,,,-99.99,474.000000,,2013-03-25 17:30:00,
2013-03-25 11:30:00,46.0,7.0,-100.00,SW,229,4.0,8.0,20,-99.99,,,-99.99,573.000000,,2013-03-25 18:30:00,
2013-03-25 12:30:00,47.0,12.0,-100.00,SSW,211,4.0,9.0,23,-99.99,,,-99.99,686.000000,,2013-03-25 19:30:00,
2013-03-25 13:22:00,47.0,12.0,-100.00,SSW,211,4.0,9.0,23,-99.99,,,-99.99,686.000000,,2013-03-25 20:22:00,
2013-03-25 13:30:00,47.0,14.0,-100.00,South,191,5.0,10.0,26,-99.99,,,-99.99,622.000000,,2013-03-25 20:30:00,
2013-03-25 14:22:00,47.0,14.0,-100.00,South,191,5.0,10.0,26,-99.99,,,-99.99,622.000000,,2013-03-25 21:22:00,
2013-03-25 14:30:00,48.0,20.0,-100.00,SW,221,4.0,12.0,33,-99.99,,,-99.99,596.000000,,2013-03-25 21:30:00,
2013-03-25 15:23:00,48.0,20.0,-100.00,SW,221,4.0,12.0,33,-99.99,,,-99.99,596.000000,,2013-03-25 22:23:00,
2013-03-25 15:30:00,45.0,23.0,-100.00,WSW,238,4.0,11.0,41,-99.99,,,-99.99,382.000000,,2013-03-25 22:30:00,
2013-03-25 16:22:00,45.0,23.0,-100.00,WSW,238,4.0,11.0,41,-99.99,,,-99.99,382.000000,,2013-03-25 23:22:00,
2013-03-25 16:30:00,43.0,19.0,-100.00,SSW,204,4.0,8.0,37,-99.99,,,-99.99,191.000000,,2013-03-25 23:30:00,
2013-03-25 17:30:00,42.0,20.0,-100.00,SSW,193,4.0,9.0,41,-99.99,,,-99.99,83.000000,,2013-03-26 00:30:00,
2013-03-25 18:22:00,42.0,20.0,-100.00,SSW,193,4.0,9.0,41,-99.99,,,-99.99,83.000000,,2013-03-26 01:22:00,
2013-03-25 18:30:00,40.0,26.0,-100.00,SW,221,4.0,9.0,58,-99.99,,,-99.99,23.000000,,2013-03-26 01:30:00,
2013-03-25 19:22:00,40.0,26.0,-100.00,SW,221,4.0,9.0,58,-99.99,,,-99.99,23.000000,,2013-03-26 02:22:00,
2013-03-25 19:30:00,36.0,33.0,-100.00,SSW,192,3.0,7.0,88,-99.99,,,-99.99,1.000000,,2013-03-26 02:30:00,
2013-03-25 20:30:00,36.0,28.0,-100.00,SSE,168,7.0,11.0,74,-99.99,,,-99.99,0.000000,,2013-03-26 03:30:00,
2013-03-25 21:23:00,36.0,28.0,-100.00,SSE,168,7.0,11.0,74,-99.99,,,-99.99,0.000000,,2013-03-26 04:23:00,
2013-03-25 21:30:00,35.0,23.0,-100.00,South,173,6.0,9.0,60,-99.99,,,-99.99,0.000000,,2013-03-26 04:30:00,
2013-03-25 22:22:00,35.0,23.0,-100.00,South,173,6.0,9.0,60,-99.99,,,-99.99,0.000000,,2013-03-26 05:22:00,
2013-03-25 23:30:00,34.0,21.0,-100.00,South,174,5.0,12.0,58,-99.99,,,-99.99,0.000000,,2013-03-26 06:30:00,